Location: Oshawa
(43.9000°N, 78.8670°W)
Time: 19:09:58
(UTC-05:00)

Daily predictions for brighter satellites

Satellite Brightness Start Highest point End
(mag) Time Altitude Azimuth Time Altitude Azimuth Time Altitude Azimuth
Meteor 1-21 Rocket 4.4 17:35:58 10° S 17:41:49 70° E 17:47:44 10° NNE
BREEZE M DEB (TANK) 4.1 17:43:44 10° SW 17:48:03 78° SE 18:05:59 10° ENE
USA 161 3.7 17:48:34 10° NNW 17:50:06 17° WNW 17:51:32 10° WSW
AQUARIUS 4.3 17:45:56 10° S 17:50:26 81° WSW 17:54:58 10° NNW
Cosmos 1674 3.8 17:48:00 10° SSW 17:51:37 46° WNW 17:55:15 10° N
Cosmos 2366 rocket 4.2 17:46:10 10° N 17:52:12 48° ENE 17:58:07 10° SSE
IRS-1A Rocket 4.3 17:47:31 10° SSE 17:52:58 63° ENE 17:58:33 10° N
NOSS 3-4 (A) 4.0 17:46:24 10° NNW 17:53:14 54° NE 18:00:33 10° ESE
NOSS 3-4 (C) 4.0 17:46:31 10° NNW 17:53:20 54° NE 18:00:39 10° ESE
SeaSat 1 3.6 17:50:47 10° S 17:55:32 49° WSW 18:00:20 10° NW
Cosmos 1328 4.4 17:52:36 10° SSE 17:56:16 35° E 17:59:58 10° NNE
Cosmos 1400 Rocket 2.9 17:54:48 10° S 17:58:51 88° ESE 18:03:00 10° N
Tiangong 1 1.1 17:56:48 10° W 17:59:15 52° S 18:01:39 10° ESE
EO 1 Del DPAF 4.4 17:57:43 10° NE 18:00:52 24° E 18:03:59 10° SSE
ALOS 2.6 17:57:06 10° SE 18:01:31 44° ENE 18:05:57 10° N
Cosmos 1766 Rocket 4.0 17:58:04 10° SSE 18:02:06 39° E 18:06:09 10° NNE
Cosmos 1626 3.0 17:59:35 10° SSE 18:02:47 28° E 18:06:01 10° NNE
Landsat 4 4.3 18:02:41 10° NNE 18:06:09 35° E 18:09:36 10° SSE
Meteor 2-2 Rocket 4.3 18:03:12 10° N 18:08:51 56° ENE 18:14:23 10° SSE
Okean 3 Rocket 3.6 18:05:24 10° S 18:09:56 89° W 18:14:29 10° N
MOS 1 4.3 18:04:31 10° SSE 18:10:03 59° ENE 18:15:35 10° N
MONITOR-E 4.4 18:07:57 10° SSE 18:10:53 45° ENE 18:13:49 10° N
Cosmos 1656 Rocket 3.6 18:07:01 10° NNW 18:12:29 66° ENE 18:17:59 10° SE
SKYMED 2 3.6 18:08:15 10° NNE 18:12:33 57° E 18:16:49 10° S
NOAA 12 4.2 18:07:33 10° SE 18:12:36 52° ENE 18:17:42 10° N
Cosmos 2369 Rocket 4.0 18:09:01 10° NW 18:14:06 35° WSW 18:19:12 10° S
Cosmos 1703 4.1 18:15:25 10° SSE 18:18:52 29° E 18:22:01 12° NNE
Cosmos 1300 3.1 18:16:00 10° NNW 18:19:48 66° W 18:23:36 10° S
Cosmos 1151 Rocket 4.0 18:17:04 10° NNE 18:20:47 26° ENE 18:24:27 10° SE
YAOGAN 1 2.8 18:16:29 10° S 18:20:48 76° WSW 18:25:08 10° NNW
Cosmos 1943 Rocket 3.4 18:16:17 10° NW 18:21:36 45° WSW 18:26:50 10° S
ERS-2 2.6 18:19:36 10° SE 18:23:01 38° ENE 18:26:28 10° N
Cosmos 864 Rocket 4.5 18:19:43 10° N 18:26:06 82° E 18:32:25 10° S
SL-24 R/B - RUBIN 2 3.5 18:21:46 10° NW 18:26:20 86° WSW 18:30:39 10° SSE
Cosmos 2221 4.5 18:28:11 10° NNW 18:32:06 33° W 18:36:01 10° SSW
CZ-2C R/B 4.2 18:28:14 10° N 18:32:55 63° WNW 18:37:29 10° SSW
Cosmos 2058 3.5 18:30:15 10° SSE 18:34:04 35° E 18:36:33 19° NE
SL-14 R/B 4.3 18:31:56 10° SSW 18:35:46 47° WNW 18:39:36 10° N
Cosmos 909 Rocket 4.3 18:29:28 10° NNW 18:36:17 51° NE 18:42:13 11° SE
BREEZE-M R/B 3.0 18:36:19 10° W 18:38:21 35° NNW 18:38:36 33° N
USA 215 4.5 18:35:55 15° NE 18:40:14 29° N 18:45:38 10° WNW
FENGYUN 3A 3.8 18:38:21 10° S 18:43:41 78° WSW 18:49:05 10° NNW
Cosmos 44 3.1 18:40:47 10° SW 18:45:04 78° WNW 18:48:03 21° NNE
Cosmos 371 Rocket 3.8 18:40:54 10° SSE 18:45:16 36° ESE 18:46:37 30° ENE
CZ-4 R/B 4.0 18:47:39 10° SSW 18:51:07 24° W 18:54:36 10° NW
Cosmos 1515 Rocket 3.5 18:47:50 10° N 18:52:09 60° E 18:56:25 10° SSE
Cosmos 1408 Rocket 3.9 18:48:45 10° SSW 18:53:01 65° W 18:57:19 10° N
Cosmos 2151 3.0 18:48:56 10° S 18:53:05 55° E 18:55:24 25° NNE
ERBS 3.8 18:54:52 10° NNW 18:56:54 24° N 18:56:54 24° N
ATLAS 5 CENTAUR R/B 4.4 18:57:42 10° N 18:58:17 10° N 18:58:53 10° NNE
SPOT 3 Rocket 3.8 18:53:16 10° S 18:58:23 69° WSW 19:03:34 10° NNW
COSMO-SKYMED 1 3.7 18:56:25 10° N 19:00:33 44° WNW 19:04:40 10° SW
Meteor 1-27 4.3 18:55:13 10° NNW 19:00:57 83° W 19:06:44 10° S
Cosmos 1346 Rocket 3.4 19:00:00 10° NNW 19:03:51 56° W 19:07:38 10° S
Meteor 1-11 4.3 18:58:52 10° SSW 19:04:27 76° W 19:10:08 10° N
PKM 3.5 19:03:12 10° NW 19:05:55 86° NE 19:06:37 55° ESE
Cosmos 1500 Rocket 3.5 19:01:39 10° S 19:06:04 65° E 19:07:49 35° NNE
H-2A R/B 2.8 19:05:17 10° S 19:09:05 77° WSW 19:12:58 10° NNW
COSMOS 2406 3.1 19:04:36 10° SSW 19:10:19 79° ESE 19:13:27 28° NNE
USA 81 3.9 19:05:24 10° S 19:10:39 76° E 19:15:57 10° N
Meteor 2-15 4.3 19:08:33 10° S 19:14:36 69° E 19:20:40 10° NNE
Cosmos 2228 Rocket 3.3 19:10:53 10° NNW 19:15:28 72° W 19:20:02 10° S
Cosmos 1455 2.5 19:13:50 10° NNW 19:17:39 64° W 19:21:26 10° S
Cosmos 44 Rocket 3.9 19:14:57 10° SW 19:19:30 50° NW 19:21:34 29° N
Cosmos 2208 Rocket 4.0 19:14:25 10° S 19:19:33 56° ESE 19:19:41 55° E
FengYun 1-2 T 4.3 19:14:32 10° S 19:20:10 78° WSW 19:25:48 10° NNW
Cosmos 1743 Rocket 3.8 19:16:25 10° SSW 19:20:45 67° W 19:23:39 20° N
Cosmos 1898 Rocket 4.0 19:24:09 10° NNW 19:28:12 45° NNE 19:28:12 45° NNE
Cosmos 1697 Rocket 4.3 19:27:19 10° N 19:29:30 20° NNE 19:29:30 20° NNE
Tiangong 1 4.2 19:31:35 10° WSW 19:31:42 11° WSW 19:31:42 11° WSW
GEOS 3 Rocket 3.6 19:35:23 59° SE 19:36:28 89° SW 19:41:53 10° NW
Cosmos 332 Rocket 4.2 19:35:17 10° SSW 19:40:07 61° WNW 19:41:20 46° NNW
Meteor 2-15 Rocket 4.3 19:35:22 10° S 19:41:30 89° W 19:47:39 10° N
Cosmos 1821 Rocket 4.1 19:37:28 10° NNW 19:43:37 71° W 19:49:47 10° S
Cosmos 1535 Rocket 4.4 19:38:33 10° N 19:44:43 81° W 19:50:49 10° S
Lacrosse 5 3.6 19:40:52 10° SSW 19:42:42 21° S 19:42:42 21° S
Envisat 4.0 19:51:21 37° NNW 19:51:21 37° NNW 19:54:24 10° NNW
Cosmos 1570 Rocket 4.2 19:48:54 10° SSW 19:54:11 67° WNW 19:54:22 66° NW
CZ-4C R/B 4.1 20:08:14 10° SSW 20:09:27 18° SSW 20:09:27 18° SSW
USA 215 4.4 20:23:16 31° N 20:23:16 31° N 20:27:47 10° NW
